Flag for Germany Weather past 2 weeks in Wipperfürth, North Rhine-Westphalia, Germany

Now
79 °F

Sunny.


Feels Like: 81 °F
Forecast: 60 / 74 °F
Wind: 5 mph from Northeast

Location: Koeln / Bonn

Current Time: Jul 23, 2014 at 8:13:39 PM

Latest Report: Jul 23, 2014 at 7:20 PM


Visibility: 10 mi

Pressure: 29.98 "Hg

Humidity: 61%

Dew point: 64 °F

Location of WipperfürthLocation

Historic Weather in Wipperfürth — Graph

°F

Wipperfürth temperature yesterday

Maximum temperature yesterday: 82 °F (at 2:50 PM)
Minimum temperature yesterday: 66 °F (at 12:20 AM)
Average temperature yesterday: 73 °F

Past Weeks' High & Low Weather Summary

 TemperatureHumidityPressure
High91 °F (Jul 19, 2:50 PM)100% (Jul 8, 7:20 PM)30.18 "Hg (Jul 8, 7:20 PM)
Low54 °F (Jul 8, 10:20 PM)26% (Jul 19, 2:50 PM)29.65 "Hg (Jul 9, 5:20 PM)
Average69 °F76%29.94 "Hg
* Reported Jul 8 6:20 PM — Jul 23 6:50 PM, Wipperfürth, Weather by CustomWeather, © 2014

Note: Actual official high and low records may vary slightly from our data, if they occured in-between our weather recording intervals... More about our weather records

Advertising

Wipperfürth weather history for previous 24 hours

 ConditionsComfort  
Time TempWeatherWind HumidityBarometerVisibility
6:50 PM
Jul 23
75 °FSunny.7 mph69%29.98 "Hg10 mi
6:20 PM75 °FPartly sunny.9 mph65%29.98 "HgN/A
5:50 PM73 °FBroken clouds.10 mph65%29.98 "HgN/A
5:20 PM73 °FBroken clouds.10 mph57%29.98 "HgN/A
4:50 PM72 °FBroken clouds.9 mph61%30.01 "HgN/A
4:20 PM73 °FScattered showers. Broken clouds.12 mph61%30.01 "HgN/A
3:50 PM75 °FThunderstorms. Broken clouds.12 mph54%30.01 "HgN/A
3:20 PM82 °FThundershowers. Broken clouds.8 mph48%30.01 "HgN/A
2:50 PM84 °FScattered showers. Broken clouds.3 mph43%30.01 "HgN/A
1:50 PM84 °FPartly sunny.3 mph48%30.01 "HgN/A
1:20 PM82 °FPartly sunny.7 mph51%30.04 "HgN/A
12:50 PM82 °FPartly sunny.3 mph45%30.04 "HgN/A
12:20 PM81 °FSunny.3 mph54%30.04 "Hg10 mi
11:50 AM81 °FSunny.3 mph54%30.04 "Hg10 mi
11:20 AM79 °FSunny.2 mph54%30.04 "Hg10 mi
7:20 AM64 °FSunny.3 mph94%30.07 "Hg10 mi
6:50 AM63 °FSunny.3 mph100%30.07 "Hg10 mi
6:20 AM63 °FFog.2 mph94%30.07 "HgN/A
5:50 AM63 °FFog.3 mph94%30.07 "HgN/A
5:20 AM63 °FFog.3 mph94%30.04 "HgN/A
4:50 AM63 °FFog.1 mph94%30.04 "HgN/A
4:20 AM63 °FFog.3 mph94%30.07 "HgN/A
3:50 AM63 °FFog.3 mph94%30.07 "HgN/A
3:20 AM64 °FFog.5 mph94%30.07 "HgN/A
2:50 AM64 °FFog.2 mph94%30.07 "HgN/A
2:20 AM64 °FFog.2 mph88%30.07 "HgN/A
1:50 AM64 °FFog.2 mph94%30.07 "HgN/A
Weather by CustomWeather, © 2014

See weather overviewHow to use our weather pages